Location: Newark
(42.8481°N, 0.4872°E)
Time: 09:09:15
(UTC+00:00)

A-11 Canister half - Pass Details

Date: 05 November 2020
Orbit: 1516 x 1684 km, 47.2° (Epoch: 04 December)

Event Time Altitude Azimuth Distance (km) Brightness Sun altitude
Rises 17:29:35 0° 225° (SW) 4,911 12.8 -8.6°
Reaches altitude 10° 17:32:46 10° 222° (SW) 3,933 12.1 -9.2°
Maximum altitude 17:42:42 63° 144° (SE) 1,846 9.3 -11.0°
Enters shadow 17:51:27 14° 69° (ENE) 3,576 10.3 -12.5°
